Location: Владивосток
(43.1151°N, 131.8856°E)
Time: 05:39:18
(UTC+10:00)

LO-87 - Pass Details

Date: 07 July 2022
Orbit: 451 x 466 km, 97.4° (Epoch: 08 August)

Event Time Altitude Azimuth Distance (km) Brightness Sun altitude
Exits shadow 00:32:13 46° 37° (NE) 633 ? -23.4°
Drops below altitude 10° 00:35:03 10° 357° (N) 1,626 ? -23.5°
Sets 00:37:08 0° 353° (N) 2,510 ? -23.6°
